Date String (YYYY-MM-DD hh:mm:ss) UTC,Instrument flags,absolute air pressure of the measurement (hPa),sample flow rate (lpm),inlet stack bypass flow (lpm),air temperature of the measurement (°C),ambient temperature measured by the external sensor (°C),aerosol sample conditioner tube jacket temperature (°C),OPC LED temperature (°C),internal box temperature (°C),relative humidity of the measurement (%),span deviation,mass concentration of particles derived from Lorenz-Mie calculation of OPC scattering (μg/m³),mass concentration of particles derived from Lorenz-Mie calculation of OPC scattering (μg/m³),mass concentration of particles derived from Lorenz-Mie calculation of OPC scattering (μg/m³)
DateTimeUTC,F1_M11,P_M11,Q1_M11,Q2_M11,T1_M11,T2_M11,T3_M11,T4_M11,T5_M11,U1_M11,ZSPAN_M11,X2_M11,X0_M11,X1_M11
2024-02-02 16:00:00,SystemResetWarning,0817.8,5.00,000.00,021.8,021.2,000.0,030.1,023.5,13.5,0000.0,0004.28,0011.96,0003.65
2024-02-02 16:01:00,SystemResetWarning,0817.8,5.00,000.00,021.8,021.2,000.0,030.1,023.5,13.8,0000.0,0004.28,0012.67,0003.66
2024-02-02 16:02:00,SystemResetWarning,0817.8,5.00,000.00,021.8,021.2,000.0,030.1,023.5,13.8,0000.0,0004.33,0013.05,0003.68
2024-02-02 16:03:00,SystemResetWarning,0817.8,5.00,000.00,021.8,021.2,000.0,030.2,023.5,13.8,0000.0,0004.33,0013.22,0003.68
2024-02-02 16:04:00,SystemResetWarning,0817.7,5.00,000.00,021.8,021.1,000.0,030.2,023.5,13.7,0000.0,0004.28,0012.95,0003.68
2024-02-02 16:05:00,SystemResetWarning,0817.7,4.99,000.00,021.8,021.1,000.0,030.1,023.5,13.9,0000.0,0004.26,0013.37,0003.67
2024-02-02 16:06:00,SystemResetWarning,0817.8,5.00,000.00,021.8,021.1,000.0,030.1,023.5,14.2,0000.0,0004.21,0012.52,0003.64
2024-02-02 16:07:00,SystemResetWarning,0817.8,5.01,000.00,021.8,021.1,000.0,030.1,023.5,14.3,0000.0,0004.18,0011.43,0003.63
2024-02-02 16:08:00,SystemResetWarning,0817.8,5.01,000.00,021.8,021.2,000.0,030.2,023.5,14.1,0000.0,0004.18,0011.42,0003.62
2024-02-02 16:09:00,SystemResetWarning,0817.7,5.00,000.00,021.8,021.2,000.0,030.1,023.5,14.1,0000.0,0004.15,0011.15,0003.61
2024-02-02 16:10:00,SystemResetWarning,0817.7,4.99,000.00,021.8,021.2,000.0,030.1,023.5,14.2,0000.0,0004.12,0011.31,0003.60
2024-02-02 16:11:00,SystemResetWarning,0817.7,5.00,000.00,021.8,021.2,000.0,030.1,023.5,14.2,0000.0,0004.11,0011.66,0003.59
2024-02-02 16:12:00,SystemResetWarning,0817.7,5.00,000.00,021.8,021.2,000.0,030.1,023.5,14.0,0000.0,0004.09,0010.94,0003.57
2024-02-02 16:13:00,SystemResetWarning,0817.8,5.01,000.00,021.8,021.2,000.0,030.2,023.5,13.8,0000.0,0004.04,0010.37,0003.55
2024-02-02 16:14:00,SystemResetWarning,0817.7,5.00,000.00,021.8,021.2,000.0,030.2,023.5,13.9,0000.0,0004.03,0010.00,0003.53
2024-02-02 16:15:00,SystemResetWarning,0817.8,5.00,000.00,021.8,021.2,000.0,030.2,023.5,13.9,0000.0,0004.04,0010.03,0003.52
2024-02-02 16:16:00,SystemResetWarning,0817.8,5.01,000.00,021.8,021.2,000.0,030.2,023.6,14.2,0000.0,0004.05,0009.68,0003.51
2024-02-02 16:17:00,SystemResetWarning,0817.8,5.00,000.00,021.8,021.2,000.0,030.2,023.6,14.1,0000.0,0004.07,0009.29,0003.50
2024-02-02 16:18:00,SystemResetWarning,0817.7,4.99,000.00,021.8,021.2,000.0,030.2,023.6,13.9,0000.0,0004.12,0009.26,0003.51
2024-02-02 16:19:00,SystemResetWarning,0817.8,5.01,000.00,021.8,021.2,000.0,030.2,023.6,13.9,0000.0,0004.16,0009.59,0003.53
2024-02-02 16:20:00,SystemResetWarning,0817.8,5.01,000.00,021.8,021.2,000.0,030.2,023.6,14.0,0000.0,0004.21,0009.60,0003.56
2024-02-02 16:21:00,SystemResetWarning,0817.8,5.00,000.00,021.8,021.2,000.0,030.2,023.6,14.2,0000.0,0004.25,0009.07,0003.59
2024-02-02 16:22:00,SystemResetWarning,0817.8,5.00,000.00,021.8,021.2,000.0,030.2,023.6,14.1,0000.0,0004.29,0008.43,0003.61
2024-02-02 16:23:00,SystemResetWarning,0817.7,4.99,000.00,021.8,021.2,000.0,030.2,023.6,14.0,0000.0,0004.35,0008.95,0003.64
2024-02-02 16:24:00,SystemResetWarning,0817.7,5.00,000.00,021.8,021.2,000.0,030.2,023.6,14.0,0000.0,0004.38,0010.21,0003.67
2024-02-02 16:25:00,SystemResetWarning,0817.7,5.01,000.00,021.8,021.2,000.0,030.2,023.6,14.1,0000.0,0004.37,0011.15,0003.70
2024-02-02 16:26:00,SystemResetWarning,0817.6,5.00,000.00,021.8,021.2,000.0,030.2,023.6,14.0,0000.0,0004.40,0011.61,0003.74
2024-02-02 16:27:00,SystemResetWarning,0817.6,5.00,000.00,021.8,021.2,000.0,030.2,023.6,14.1,0000.0,0004.43,0012.11,0003.77
2024-02-02 16:28:00,SystemResetWarning,0817.6,5.00,000.00,021.8,021.2,000.0,030.2,023.6,14.1,0000.0,0004.44,0012.51,0003.81
2024-02-02 16:29:00,SystemResetWarning,0817.6,4.99,000.00,021.8,021.2,000.0,030.2,023.5,14.2,0000.0,0004.44,0013.05,0003.83
2024-02-02 16:30:00,SystemResetWarning,0817.6,4.99,000.00,021.8,021.2,000.0,030.2,023.5,14.2,0000.0,0004.43,0013.69,0003.84
2024-02-02 16:31:00,SystemResetWarning,0817.6,5.00,000.00,021.8,021.2,000.0,030.2,023.6,14.2,0000.0,0004.43,0013.73,0003.85
2024-02-02 16:32:00,SystemResetWarning,0817.6,5.00,000.00,021.8,021.2,000.0,030.2,023.6,14.0,0000.0,0004.41,0013.62,0003.86
2024-02-02 16:33:00,SystemResetWarning,0817.5,5.00,000.00,021.8,021.2,000.0,030.2,023.6,14.1,0000.0,0004.41,0013.54,0003.87
2024-02-02 16:34:00,SystemResetWarning,0817.5,5.00,000.00,021.8,021.2,000.0,030.2,023.6,14.1,0000.0,0004.39,0014.39,0003.87
2024-02-02 16:35:00,SystemResetWarning,0817.5,5.00,000.00,021.8,021.2,000.0,030.2,023.6,14.1,0000.0,0004.39,0013.42,0003.88
2024-02-02 16:36:00,SystemResetWarning,0817.5,5.01,000.00,021.8,021.2,000.0,030.2,023.6,14.1,0000.0,0004.41,0012.20,0003.87
2024-02-02 16:37:00,SystemResetWarning,0817.5,5.00,000.00,021.8,021.2,000.0,030.2,023.6,14.1,0000.0,0004.42,0011.90,0003.87
2024-02-02 16:38:00,SystemResetWarning,0817.5,4.99,000.00,021.8,021.2,000.0,030.2,023.6,14.2,0000.0,0004.39,0011.70,0003.86
2024-02-02 16:39:00,SystemResetWarning,0817.5,5.00,000.00,021.8,021.3,000.0,030.2,023.6,14.2,0000.0,0004.38,0011.63,0003.86
2024-02-02 16:40:00,SystemResetWarning,0817.5,5.00,000.00,021.9,021.3,000.0,030.2,023.6,14.2,0000.0,0004.37,0010.87,0003.85
2024-02-02 16:41:00,SystemResetWarning,0817.5,5.01,000.00,021.9,021.3,000.0,030.2,023.6,14.3,0000.0,0004.39,0010.29,0003.84
2024-02-02 16:42:00,SystemResetWarning,0817.5,4.99,000.00,021.9,021.3,000.0,030.2,023.6,14.4,0000.0,0004.37,0009.68,0003.84
2024-02-02 16:43:00,SystemResetWarning,0817.5,4.99,000.00,021.9,021.3,000.0,030.2,023.6,14.3,0000.0,0004.36,0009.73,0003.82
2024-02-02 16:44:00,SystemResetWarning,0817.5,5.00,000.00,021.9,021.3,000.0,030.2,023.7,14.2,0000.0,0004.35,0010.17,0003.79
2024-02-02 16:45:00,SystemResetWarning,0817.4,5.01,000.00,021.9,021.3,000.0,030.2,023.6,14.2,0000.0,0004.32,0009.24,0003.78
2024-02-02 16:46:00,SystemResetWarning,0817.4,5.01,000.00,021.9,021.3,000.0,030.2,023.6,14.2,0000.0,0004.32,0009.15,0003.78
2024-02-02 16:47:00,SystemResetWarning,0817.4,5.01,000.00,021.9,021.3,000.0,030.2,023.6,14.3,0000.0,0004.32,0009.47,0003.78
2024-02-02 16:48:00,SystemResetWarning,0817.4,5.00,000.00,021.9,021.3,000.0,030.2,023.6,14.4,0000.0,0004.36,0010.40,0003.78
2024-02-02 16:49:00,SystemResetWarning,0817.4,4.99,000.00,021.9,021.3,000.0,030.2,023.7,14.5,0000.0,0004.39,0010.93,0003.79
2024-02-02 16:50:00,SystemResetWarning,0817.4,4.99,000.00,021.9,021.3,000.0,030.2,023.7,14.4,0000.0,0004.47,0011.27,0003.81
2024-02-02 16:51:00,SystemResetWarning,0817.4,5.00,000.00,021.9,021.3,000.0,030.2,023.7,14.3,0000.0,0004.48,0012.33,0003.82
2024-02-02 16:52:00,SystemResetWarning,0817.4,5.01,000.00,021.9,021.3,000.0,030.2,023.7,14.3,0000.0,0004.48,0013.77,0003.83
2024-02-02 16:53:00,SystemResetWarning,0817.3,5.00,000.00,021.9,021.4,000.0,030.2,023.7,14.4,0000.0,0004.47,0013.76,0003.84
2024-02-02 16:54:00,SystemResetWarning,0817.3,5.00,000.00,021.9,021.4,000.0,030.2,023.7,14.5,0000.0,0004.47,0013.72,0003.87
2024-02-02 16:55:00,SystemResetWarning,0817.3,5.00,000.00,021.9,021.4,000.0,030.3,023.7,14.4,0000.0,0004.47,0013.38,0003.89
2024-02-02 16:56:00,SystemResetWarning,0817.3,4.99,000.00,021.9,021.4,000.0,030.3,023.7,14.3,0000.0,0004.46,0013.68,0003.90
2024-02-02 16:57:00,SystemResetWarning,0817.3,4.99,000.00,022.0,021.4,000.0,030.3,023.7,14.4,0000.0,0004.49,0013.84,0003.91
2024-02-02 16:58:00,SystemResetWarning,0817.3,5.00,000.00,022.0,021.4,000.0,030.3,023.7,14.3,0000.0,0004.53,0014.05,0003.93
2024-02-02 16:59:00,SystemResetWarning,0817.3,5.01,000.00,022.0,021.4,000.0,030.3,023.7,14.4,0000.0,0004.52,0014.18,0003.93
